Tracking 28794 objects as of 19-Apr-2024
HD Live streaming from Space Station
objects crossing your sky now

COSMOS 1275 DEB

Track COSMOS 1275 DEB now!
10-day predictions


NORAD ID: 12736
Int'l Code: 1981-053CD
Perigee: 958.4 km
Apogee: 1,151.1 km
Inclination: 83.0 °
Period: 106.1 minutes
Semi major axis: 7425 km
RCS: 0.038 m2 (small)
Launch date: June 4, 1981
Source: Commonwealth of Independent States (former USSR) (CIS)
Launch site: PLESETSK MISSILE AND SPACE COMPLEX (PKMTR)

Note: This is SATELLITE DEBRIS
Your satellite tracking list
Your tracking list is empty




NASA's NSSDC Master Catalog

Two Line Element Set (TLE):
1 12736U 81053CD  24109.85068583  .00001005  00000-0  13279-2 0  9995
2 12736  83.0276 302.7026 0129737 246.1190 176.0317 13.56721620108343
Source of the keplerian elements: AFSPC